Flag for Canada Weather past 2 weeks in Whistler, British Columbia, Canada

Now
55 °F

Cool.


Feels Like: 55 °F
Forecast: 48 / 76 °F
Wind: 1 mph from Northeast

Location: Squamish Airport

Current Time: Aug 22, 2014 at 3:09:49 AM

Latest Report: Aug 22, 2014 at 2:00 AM


Visibility: N/A

Pressure: 29.99 "Hg

Humidity: 90%

Dew point: 52 °F

Location of WhistlerLocation

Historic Weather in Whistler — Graph

°F

Whistler temperature yesterday

Maximum temperature yesterday: 73 °F (at 3:00 PM)
Minimum temperature yesterday: 56 °F (at 12:00 AM)
Average temperature yesterday: 64 °F

Past Weeks' High & Low Weather Summary

 TemperatureHumidityPressure
High93 °F (Aug 11, 1:00 PM)100% (Aug 19, 5:00 AM)30.14 "Hg (Aug 19, 5:00 AM)
Low53 °F (Aug 8, 6:00 AM)22% (Aug 11, 1:00 PM)29.70 "Hg (Aug 19, 6:00 PM)
Average67 °F76%29.95 "Hg
* Reported Aug 7 2:00 AM — Aug 22 2:00 AM, Whistler, Weather by CustomWeather, © 2014

Note: Actual official high and low records may vary slightly from our data, if they occured in-between our weather recording intervals... More about our weather records

Advertising

Whistler weather history for previous 24 hours

 ConditionsComfort  
Time TempWeatherWind HumidityBarometerVisibility
2:00 AM
Aug 22
55 °FCool.1 mph90%29.99 "HgN/A
1:00 AM56 °FCool.1 mph90%29.98 "HgN/A
12:00 AM57 °FCool.1 mph90%29.98 "HgN/A
11:00 PM
Aug 21
58 °FCool.1 mph87%29.97 "HgN/A
10:00 PM61 °FCool.1 mph84%29.96 "HgN/A
9:00 PM63 °FMild.1 mph78%29.95 "HgN/A
8:00 PM66 °FMild.2 mph68%29.93 "HgN/A
7:00 PM69 °FMild.5 mph58%29.92 "HgN/A
6:00 PM72 °FMild.5 mph53%29.90 "HgN/A
5:00 PM72 °FMild.8 mph55%29.90 "HgN/A
4:00 PM73 °FMild.7 mph52%29.89 "HgN/A
3:00 PM73 °FMild.8 mph53%29.90 "HgN/A
2:00 PM73 °FMild.8 mph55%29.92 "HgN/A
1:00 PM72 °FMild.9 mph57%29.94 "HgN/A
12:00 PM70 °FMild.7 mph61%29.95 "HgN/A
11:00 AM68 °FMild.8 mph64%29.97 "HgN/A
10:00 AM64 °FMild.3 mph77%29.98 "HgN/A
9:00 AM63 °FMild.1 mph79%29.98 "HgN/A
8:00 AM57 °FCool.1 mph94%29.98 "HgN/A
7:00 AM56 °FCool.No wind94%29.97 "HgN/A
6:00 AM56 °FCool.1 mph95%29.97 "HgN/A
5:00 AM57 °FCool.1 mph92%29.96 "HgN/A
4:00 AM58 °FCool.No wind92%29.97 "HgN/A
3:00 AM60 °FCool.2 mph88%29.97 "HgN/A
Weather by CustomWeather, © 2014

See weather overviewHow to use our weather pages